Regional Weather Roundup
Issued by NWS Sterling, VA

Home | Current Version | Previous Version | Graphics & Text | Print | Product List | Glossary On
Versions: 1 2 3 4 5 6 7 8 9 10 11 12 13 14 15 16 17 18 19 20 21 22 23 24 25 26 27 28 29 30 31 32 33 34 35 36 37 38 39 40 41 42 43 44 45 46 47 48 49 50
340
ASUS41 KLWX 071710
RWRLWX

REGIONAL WEATHER ROUNDUP
NATIONAL WEATHER SERVICE BALTIMORE MD/WASHINGTON DC
1200 PM EST SUN FEB 07 2016

Note: "FAIR" indicates few or no clouds below 12,000 feet
with no significant weather and/or obstructions to visibility.
 TC=TEMPERATURE CELSIUS

 * =Non NWS site. Station does not report precipitation (e.g. rain,
    snow, etc.), thunder, or fog.

DCZ001-MDZ009-015-VAZ040>042-051-053>054-071800-
WASHINGTON METRO

CITY           SKY/WX    TMP DP  RH WIND       PRES   REMARKS
WASHINGTON NAT CLOUDY    44  25  47 N6        30.12F
DULLES         PTSUNNY   39  23  52 NW8       30.12F
ANDREWS AFB    PTSUNNY   42  23  46 NE9       30.10F
FT BELVOIR     FAIR      45  20  37 N8        30.11F
QUANTICO       FAIR      40  30  67 E7        30.13F
COLLEGE PARK*  FAIR      43  23  45 NE3       30.12F
LEESBURG*      FAIR      41  28  60 N5        30.13F
MANASSAS*      SUNNY     41  25  52 N12       30.12F
GAITHERSBURG*  CLOUDY    41  25  52 N3        30.15F

$$

MDZ006>007-011-014-071800-
BALTIMORE METRO

CITY           SKY/WX    TMP DP  RH WIND       PRES   REMARKS
BWI AIRPORT    CLOUDY    41  23  48 CALM      30.12F
MD SCIENCE CTR   N/A     43  22  43 MISG      30.15F
MARTIN STATE   PTSUNNY   43  28  56 N3        30.14F
ANNAPOLIS      CLOUDY    40  25  55 N7        30.12F
FORT MEADE*    PTSUNNY   41  27  56 NE6       30.15F

$$

MDZ012-015-019>023-071800-
MARYLAND EASTERN SHORE

CITY           SKY/WX    TMP DP  RH WIND       PRES   REMARKS
OCEAN CITY     PTSUNNY   41  32  70 NE12      30.13F
SALISBURY      PTSUNNY   40  26  57 NE7       30.13F
BAY BRIDGE AP*   N/A     36  28  75 N9        30.13F WCI  29
CAMBRIDGE*     CLOUDY    41  28  60 N6        30.12F
EASTON*        CLOUDY    43  28  56 NE12      30.16F

$$

MDZ017>025-071800-
SOUTHERN MARYLAND

CITY           SKY/WX    TMP DP  RH WIND       PRES   REMARKS
PATUXENT RIVER CLOUDY    40  28  62 NE12      30.12F
ST INIGOES     CLOUDY    42  27  55 N8        30.11F
LEONARDTOWN*   CLOUDY    41  27  56 NE5       30.13F

$$

MDZ003>005-071800-
NORTH CENTRAL MARYLAND

CITY           SKY/WX    TMP DP  RH WIND       PRES   REMARKS
FREDERICK*     SUNNY     36  28  75 CALM      30.15F
HAGERSTOWN APT CLOUDY    40  21  46 CALM      30.10F
WESTMINSTER*   CLOUDY    41  28  60 NW3       30.11F

$$

MDZ501>502-071800-
WESTERN MARYLAND

CITY           SKY/WX    TMP DP  RH WIND       PRES   REMARKS
OAKLAND*       SUNNY     36  21  55 NW6       30.04F
CUMBERLAND*    SUNNY     43  23  45 CALM      30.15F

$$

VAZ025>031-071800-
SHENANDOAH VALLEY

CITY           SKY/WX    TMP DP  RH WIND       PRES   REMARKS
WINCHESTER*    FAIR      41  23  48 CALM      30.11F
FRONT ROYAL*   FAIR      36  27  69 CALM      30.11F
LURAY*         FAIR      34  27  75 S3        30.11S
NEW MARKET*    FAIR      34  27  75 CALM      30.10F
STAUNTON*      FAIR      37  28  69 CALM      30.12S
WAYNESBORO*    FAIR      35  23  62 CALM      30.09R

$$

WVZ021-048>050-054>055-071800-
EASTERN WEST VIRGINIA PANHANDLE

CITY           SKY/WX    TMP DP  RH WIND       PRES   REMARKS
MARTINSBURG    FAIR      38  22  52 CALM      30.11F
PETERSBURG*    FAIR      43  24  47 CALM      30.09F

$$

VAZ036>039-050-071800-
CENTRAL FOOTHILLS

CITY           SKY/WX    TMP DP  RH WIND       PRES   REMARKS
CHARLOTTESVILL FAIR      41  22  46 VRB3      30.09F
CULPEPER*      FAIR      40  25  54 N6        30.12F
ORANGE*        FAIR      43  25  49 N6        30.12S
GORDONSVILLE*  FAIR      42  23  47 NE7       30.09F
WARRENTON*     FAIR      44  26  49 N8        30.10F

$$

VAZ055>057-071800-
NORTH AND CENTRAL PIEDMONT

CITY           SKY/WX    TMP DP  RH WIND       PRES   REMARKS
FREDERICKSBRG* FAIR      44  24  45 N3        30.11F
STAFFORD*      FAIR      44  18  35 N8        30.15F

$$

NCZ024-NYZ072-PAZ021-071-VAZ022-071-071800-
OTHER REGIONAL OBSERVATIONS

CITY           SKY/WX    TMP DP  RH WIND       PRES   REMARKS
NEW YORK CITY  SUNNY     42  20  41 CALM      30.15F
PHILADELPHIA   PTSUNNY   44  25  47 E7        30.14F
PITTSBURGH     MOSUNNY   45  22  40 S13       30.05F
ROANOKE        PTSUNNY   40  23  50 CALM      30.09F
RICHMOND       CLOUDY    41  25  53 N8        30.09F
RALEIGH        CLOUDY    40  22  48 NE7       30.04S

$$

ANZ530>537-071800-
MARINE OBSERVATIONS

STATION/POSITION TIME  TEMP    WIND        PRES
                       AIR SEA DIR/SP/G
                 (UTC) (F)     (DEG/KT/KT) (MB)
THOMAS PT LIGHT  1700   36      30/ 12     1020.6F
BALT KEY BRIDGE  1600   36     320/  6/  7 1021.3F
COVE POINT       1600   36      10/  9/ 12 1021.1F
LEWISETTA        1600   40 41   10/  6/ 10 1019.9F
SOLOMONS ISLAND  1600   40 41  360/  9/ 11   N/A

$$





USA.gov is the U.S. government's official web portal to all federal, state and local government web resources and services.